Weather in Zagazig

Egypt     30°35′11″N   31°30′14″E
temp.,
°C
wind,
m/s
gust,
m/s
humid.,
%
clouds,
%
prec.,
mm/h
press.,
hPa
HPBL,
m
26 june, sun
sun2623:00+24n35610 0.0 1011221
02:00+22nnw23720 0.0 101186
05:00+21wnw22760 0.0 101126
08:00+26nw23480 0.0 1011736
11:00+33nnw34220 0.0 10101686
14:00+39nnw57150 0.0 10082679
17:00+35nnw98210 0.0 10081586
20:00+28nnw59390 0.0 1010368
27 june, mon
mon2723:00+25nw26590 0.0 1011243
02:00+24wnw23690 0.0 101081
05:00+23wnw23720 0.0 101064
08:00+29wnw45470 0.0 1010789
11:00+36wnw57220 0.0 10092206
14:00+38nw88190 0.0 10072855
17:00+35nnw98220 0.0 10072260
20:00+28nw48390 0.0 1009319
28 june, tue
tue2823:00+24wnw37670 0.0 1009267
02:00+22w25810 0.0 1008166
05:00+21w23840 0.0 100885
08:00+26wnw22550 0.0 1008733
11:00+33wnw33290 0.0 10071816
14:00+38nw34180 0.0 10053041
17:00+36nne76244 0.0 10052239
20:00+29n58430 0.0 1008464
29 june, wed
wed2923:00+25nw35670 0.0 1009253
02:00+23wnw24840 0.0 1008148
05:00+22wnw22910 0.0 100871
08:00+27w22590 0.0 1008708
11:00+33wsw22280 0.0 10071762
14:00+37wsw33180 0.0 10052963
17:00+37nnw76230 0.0 10042218
20:00+29nnw58470 0.0 1007641
30 june, thu
thu3023:00+26n24580 0.0 1008213
02:00+24n22660 0.0 100739
05:00+23nnw12720 0.0 100718
08:00+28nw11520 0.0 1008717
11:00+34wnw22290 0.0 10071788
14:00+37nnw23210 0.0 10052951
17:00+36nne972629 0.0 10041680
20:00+29nne57420 0.0 1008646